Weather History for KVLL - February, 2013

Change the Weather History Date:

Friday, February 15, 2013

  Actual Average Record
Temperature  
Mean Temperature 33 °F -  
Max Temperature 37 °F - - ()
Min Temperature 28 °F - - ()
Degree Days  
Heating Degree Days 32    
Moisture  
Dew Point 19 °F    
Average Humidity 59    
Maximum Humidity 75    
Minimum Humidity 41    
Precipitation  
Precipitation 0.00 in - - ()
Sea Level Pressure  
Sea Level Pressure 30.00 in    
Wind  
Wind Speed 12 mph (WNW)    
Max Wind Speed 20 mph    
Max Gust Speed 26 mph    
Visibility 10 miles    
Events      
T = Trace of Precipitation, MM = Missing Value Source: NWS Daily Summary

Daily Weather History Graph

Daily Weather History Graph

Search for Another Location

Airport or City:

Trip Planner

Search our weather history database for the weather conditions in past years. The results will help you decide how hot, cold, wet, or windy it might be!

Date:

Astronomy

Feb. 15, 2013 Rise Set
Actual Time 7:29 AM EST 6:05 PM EST
Civil Twilight 7:00 AM EST 6:34 PM EST
Nautical Twilight 6:27 AM EST 7:07 PM EST
Astronomical Twilight 5:54 AM EST 7:39 PM EST
Moon 9:56 AM EST (2/15) No Moon Set
Length of Visible Light 11h 33m
Length of Day
10h 36m
Waxing Crescent, 30% of the Moon is Illuminated
Feb 15
Waxing Crescent
Feb 17
First Quarter
Feb 25
Full
Mar 4
Last Quarter
Mar 11
New

Hourly Weather History & Observations

Time (EST) Temp. Windchill Dew Point Humidity Pressure Visibility Wind Dir Wind Speed Gust Speed Precip Events Conditions
12:15 AM 37.8 °F 27.7 °F 29.5 °F 72% 29.84 in 10.0 mi West 19.6 mph 26.5 mph N/A   Overcast
12:34 AM 37.4 °F 28.9 °F 29.1 °F 72% 29.84 in 10.0 mi West 13.8 mph 21.9 mph N/A   Overcast
12:54 AM 37.4 °F 29.8 °F 28.9 °F 71% 29.85 in 10.0 mi West 11.5 mph 19.6 mph N/A   Overcast
1:14 AM 36.9 °F 30.1 °F 28.9 °F 73% 29.86 in 10.0 mi West 9.2 mph 21.9 mph N/A   Overcast
1:34 AM 36.5 °F 29.7 °F 29.1 °F 75% 29.86 in 10.0 mi West 9.2 mph - N/A   Overcast
1:55 AM 36.1 °F 27.7 °F 28.2 °F 73% 29.87 in 10.0 mi WNW 12.7 mph 20.7 mph N/A   Overcast
2:14 AM 35.6 °F 28.6 °F 27.5 °F 72% 29.88 in 10.0 mi West 9.2 mph 18.4 mph N/A   Overcast
2:34 AM 35.1 °F 28.6 °F 26.4 °F 71% 29.88 in 10.0 mi West 8.1 mph 18.4 mph N/A   Overcast
2:54 AM 34.7 °F 26.9 °F 25.7 °F 70% 29.90 in 10.0 mi WNW 10.4 mph 20.7 mph N/A   Overcast
3:14 AM 34.3 °F 25.9 °F 24.8 °F 68% 29.90 in 10.0 mi WNW 11.5 mph 21.9 mph N/A   Overcast
3:34 AM 34.3 °F 27.0 °F 25.3 °F 70% 29.91 in 10.0 mi West 9.2 mph - N/A   Overcast
3:54 AM 34.0 °F 25.0 °F 24.8 °F 69% 29.91 in 10.0 mi West 12.7 mph 17.3 mph N/A   Mostly Cloudy
4:14 AM 32.9 °F 25.3 °F 24.4 °F 71% 29.91 in 10.0 mi West 9.2 mph - N/A   Scattered Clouds
4:34 AM 32.5 °F 24.2 °F 23.9 °F 70% 29.92 in 10.0 mi WNW 10.4 mph 16.1 mph N/A   Clear
4:54 AM 32.0 °F 23.6 °F 23.7 °F 71% 29.93 in 10.0 mi WNW 10.4 mph - N/A   Clear
5:14 AM 32.0 °F 22.1 °F 23.4 °F 70% 29.94 in 10.0 mi WNW 13.8 mph 19.6 mph N/A   Scattered Clouds
5:34 AM 31.5 °F 21.8 °F 21.9 °F 68% 29.96 in 10.0 mi WNW 12.7 mph 23.0 mph N/A   Mostly Cloudy
5:54 AM 31.1 °F 21.4 °F 21.6 °F 68% 29.96 in 10.0 mi WNW 12.7 mph 17.3 mph N/A   Overcast
6:14 AM 31.5 °F 24.2 °F 22.5 °F 69% 29.97 in 10.0 mi WNW 8.1 mph - N/A   Overcast
6:34 AM 31.3 °F 22.1 °F 22.6 °F 70% 29.98 in 10.0 mi WNW 11.5 mph 16.1 mph N/A   Overcast
6:54 AM 30.7 °F 23.3 °F 22.1 °F 70% 29.99 in 10.0 mi WNW 8.1 mph - N/A   Overcast
7:14 AM 30.6 °F 21.8 °F 21.9 °F 70% 30.00 in 10.0 mi WNW 10.4 mph - N/A   Overcast
7:35 AM 30.6 °F 24.7 °F 22.1 °F 71% 30.00 in 10.0 mi WNW 5.8 mph - N/A   Overcast
7:54 AM 30.7 °F 22.6 °F 22.3 °F 71% 30.01 in 10.0 mi WNW 9.2 mph - N/A   Overcast
8:14 AM 30.4 °F 24.5 °F 22.5 °F 72% 30.02 in 10.0 mi West 5.8 mph - N/A   Scattered Clouds
8:34 AM 30.6 °F 21.2 °F 19.8 °F 64% 30.03 in 10.0 mi NW 11.5 mph 16.1 mph N/A   Mostly Cloudy
8:54 AM 30.0 °F 20.5 °F 15.1 °F 54% 30.04 in 10.0 mi NW 11.5 mph 17.3 mph N/A   Overcast
9:15 AM 29.8 °F 20.3 °F 15.6 °F 56% 30.05 in 10.0 mi WNW 11.5 mph - N/A   Overcast
9:34 AM 29.5 °F 20.4 °F 14.5 °F 54% 30.05 in 10.0 mi WNW 10.4 mph 20.7 mph N/A   Overcast
9:54 AM 29.7 °F 19.1 °F 14.2 °F 53% 30.06 in 10.0 mi WNW 13.8 mph 20.7 mph N/A   Overcast
10:15 AM 30.4 °F 22.2 °F 14.7 °F 52% 30.06 in 10.0 mi NW 9.2 mph - N/A   Scattered Clouds
10:34 AM 31.1 °F 21.9 °F 14.5 °F 50% 30.06 in 10.0 mi West 11.5 mph - N/A   Clear
10:54 AM 32.0 °F 22.5 °F 14.9 °F 49% 30.07 in 10.0 mi WNW 12.7 mph 17.3 mph N/A   Scattered Clouds
11:14 AM 31.5 °F 20.1 °F 14.4 °F 49% 30.07 in 10.0 mi West 17.3 mph 25.3 mph N/A   Scattered Clouds
11:34 AM 32.0 °F 22.1 °F 14.0 °F 48% 30.07 in 10.0 mi WNW 13.8 mph 21.9 mph N/A   Mostly Cloudy
11:55 AM 32.0 °F 22.1 °F 14.0 °F 48% 30.07 in 10.0 mi WNW 13.8 mph 19.6 mph N/A   Overcast
12:14 PM 31.8 °F 21.8 °F 14.2 °F 48% 30.07 in 10.0 mi WNW 13.8 mph 21.9 mph N/A   Overcast
12:54 PM 32.0 °F 22.5 °F 13.1 °F 46% 30.07 in 10.0 mi West 12.7 mph 20.7 mph N/A   Overcast
1:14 PM 32.2 °F 23.2 °F 12.6 °F 44% 30.06 in 10.0 mi NW 11.5 mph - N/A   Overcast
1:34 PM 32.0 °F 23.6 °F 11.5 °F 43% 30.06 in 10.0 mi WNW 10.4 mph 19.6 mph N/A   Overcast
1:54 PM 32.0 °F 22.1 °F 12.0 °F 44% 30.06 in 10.0 mi WNW 13.8 mph 19.6 mph N/A   Overcast
1:59 PM 32.0 °F 21.2 °F 12.2 °F 44% 30.06 in 10.0 mi WNW 16.1 mph - N/A   Overcast
2:14 PM 32.0 °F 24.2 °F 11.7 °F 43% 30.06 in 10.0 mi WNW 9.2 mph - N/A   Overcast
2:19 PM 32.0 °F 21.6 °F 12.0 °F 44% 30.06 in 10.0 mi WNW 15.0 mph 19.6 mph N/A   Overcast
2:59 PM 32.0 °F 24.8 °F 10.4 °F 41% 30.06 in 10.0 mi West 8.1 mph 17.3 mph N/A   Overcast
4:59 PM 30.2 °F 21.3 °F 12.2 °F 47% 30.09 in 10.0 mi NW 10.4 mph 17.3 mph N/A   Overcast
5:59 PM 30.2 °F 23.4 °F 12.2 °F 47% 30.10 in 10.0 mi NW 6.9 mph - N/A   Overcast
6:59 PM 30.2 °F 24.3 °F 10.4 °F 44% 30.12 in 10.0 mi WNW 5.8 mph - N/A   Overcast
7:59 PM 30.2 °F 24.3 °F 12.2 °F 47% 30.12 in 10.0 mi WNW 5.8 mph - N/A   Overcast
8:59 PM 30.2 °F - 12.2 °F 47% 30.12 in 10.0 mi Calm Calm - N/A   Overcast
9:59 PM 30.2 °F 22.6 °F 14.0 °F 51% 30.12 in 10.0 mi WNW 8.1 mph - N/A   Overcast
10:59 PM 28.4 °F 22.2 °F 15.8 °F 59% 30.11 in 10.0 mi NW 5.8 mph - N/A   Overcast